Volver al catálogo

STARLINK-35277

ActivoComunicacionesVLEO
NORAD 65832·PAYLOAD·🇺🇸 United States

Lanzado Sep 29, 2025 desde Vandenberg Space Force Base

Loading…

Próximos Pases (próximas 24 horas)

TLE

ActualizadoSource: CelesTrak SupGP

Época: Sep 14, 2026, 20:54 UTC

1 65832C 25221K   26257.87131944  .00025427  00000+0  75147-3 0  2578
2 65832  53.1576 286.1930 0001200  88.9150   4.8951 15.34368635    18

Sigue STARLINK-35277 en tiempo real con AllMySat

Download on the App Store